Location: Carrières
(48.9495°N, 2.0407°E)
Time: 17:47:18
(UTC+00:00)

Transit 4A - Visible Passes

Search period start: 23 April 2024 00:00
Search period end: 03 May 2024 00:00
Orbit: 871 x 971 km, 66.8° (Epoch: 22 April)

Date Brightness Start Highest point End Pass type
(mag) Time Alt. Az. Time Alt. Az. Time Alt. Az.
23 Apr 8.4 21:00:30 10° NW 21:06:05 48° WSW 21:09:32 23° S visible
24 Apr 8.2 19:23:08 10° NNW 19:28:51 52° NE 19:34:34 10° SE visible
24 Apr 9.0 21:09:47 10° NW 21:14:59 34° WSW 21:18:42 17° SSW visible
25 Apr 7.9 19:32:09 10° NNW 19:37:59 71° NE 19:43:50 10° SE visible
25 Apr 9.5 21:19:15 10° WNW 21:23:48 24° WSW 21:27:54 12° SSW visible
26 Apr 7.9 19:41:12 10° NW 19:47:04 86° WSW 19:52:57 10° SSE visible
26 Apr 10.0 21:29:03 10° WNW 21:32:33 16° WSW 21:36:03 10° SW visible
27 Apr 8.2 19:50:19 10° NW 19:56:04 62° WSW 20:01:51 10° SSE visible
27 Apr 10.3 21:40:06 10° W 21:41:13 11° W 21:42:21 10° WSW visible
28 Apr 8.8 19:59:31 10° NW 20:05:00 44° WSW 20:10:32 10° S visible
29 Apr 9.4 20:08:51 10° NW 20:13:53 31° WSW 20:18:56 10° S visible
30 Apr 9.9 20:18:23 10° WNW 20:22:40 21° WSW 20:26:59 10° SSW visible
01 May 10.2 20:28:22 10° WNW 20:31:24 15° WSW 20:34:26 10° SW visible
